Location: Happy Homes Park
(37.7458°N, 99.9763°W)
Time: 17:38:47
(UTC+00:00)

CZ-4C R/B - Pass Details

Date: 06 October 2022
Orbit: 458 x 621 km, 98.1° (Epoch: 28 November)

Event Time Altitude Azimuth Distance (km) Brightness Sun altitude
Rises 12:08:03 0° 190° (S) 2,799 6.8 -7.1°
Reaches altitude 10° 12:10:22 10° 201° (SSW) 1,926 5.9 -6.7°
Maximum altitude 12:14:05 31° 263° (W) 1,086 4.3 -5.9°
Drops below altitude 10° 12:17:56 10° 326° (NW) 1,989 5.8 -5.2°
Sets 12:20:22 0° 337° (NNW) 2,907 6.7 -4.7°
